Location: Pedholt
(56.0260°N, 10.2097°E)
Time: 07:47:54
(UTC+00:00)

Transit 2A Rocket - Pass Details

Date: 06 August 2021
Orbit: 586 x 917 km, 66.7° (Epoch: 24 September)

Event Time Altitude Azimuth Distance (km) Brightness Sun altitude
Rises 22:19:27 0° 307° (NW) 3,307 9.2 -16.2°
Reaches altitude 10° 22:23:21 10° 279° (W) 2,447 7.9 -16.4°
Maximum altitude 22:25:33 12° 256° (WSW) 2,314 7.5 -16.5°
Drops below altitude 10° 22:27:49 10° 233° (SW) 2,513 7.4 -16.5°
Enters shadow 22:29:15 - 221° (SW) 2,788 7.6 -16.6°
Sets 22:31:59 0° 205° (SSW) 3,498 - -16.7°
